User: anonymous   Login
Location: Newark
(52.4480°N, 1.4938°W)
Time: 05:00:51
(UTC+00:00)
Language:

SPROUT - Orbit

View from above orbital plane
View from above orbital plane
View from above satellite
View from above satellite

Ground track
Ground track

The orbit data is extracted from the following two-line orbital elements,

1 39770U 14029E   20330.75404637  .00001515  00000-0  17108-3 0  9998
2 39770  97.9042  76.4511 0009526 151.1006 209.0744 14.87998506353047
Epoch (UTC): 25 November 2020 18:05:49
Eccentricity: 0.0009526
inclination: 97.9042°
perigee height: 597 km
apogee height: 611 km
right ascension of ascending node: 76.4511°
argument of perigee: 151.1006°
revolutions per day: 14.87998506
mean anomaly at epoch: 209.0744°
orbit number at epoch: 35304

The dashed part of the orbit path shows where the satellite is in the earth's shadow,  

DLR